Bani, Dominican Republic
Current Conditions -  °F | °C
As of 12:00 AM on Tuesday 21 Oct 2014 (Local Time) from MDSD Reporting Station
Few Clouds Few Clouds  
Wind Chill: 73°   Ceiling: Unl
Heat Index: 73°   Visibility: 6mi
Dew Point: 70°   Wind: 5mph
Humidity: 88%   Direction: 10°N
Pressure: 29.94"   Gusts: NA
Location:  18.29°N, 70.33°W
Report Text: MDSD 210400Z 01004KT 9999 FEW018 23/21 Q1014
Loading
Personal Weather Stations






























Interactive Weather Map
Tropical Storm Tracking
New forecast layout! Learn more

10-Day Weather Forecast

Advertisements
Track Severe Weather on mobile